Wind_Speed
35 35 35 36 37 38 39 41 42 42 42 42 42 43 44 45 46 47 47 47 47 47 47 47 47 47 47 47 47 47 48 47 46 46 46 46 46 46
34 34 35 36 37 38 39 41 42 42 42 42 42 43 44 45 46 46 46 45 44 44 44 44 44 44 44 44 44 44 44 43 43 42 42 42 42 44
33 34 35 36 38 38 38 39 40 40 41 41 42 43 44 44 44 43 43 42 42 43 42 42 41 41 40 40 40 40 39 39 39 39 39 40 40 41
33 33 35 36 36 36 37 37 38 38 39 39 40 41 41 41 41 40 39 40 39 39 39 39 38 37 37 36 36 36 35 34 34 34 35 35 36 36
31 32 33 34 35 35 36 36 37 37 37 38 38 38 38 38 37 37 37 36 35 35 35 34 34 34 33 33 34 33 32 32 32 32 32 32 33 34
31 32 33 33 34 34 35 35 35 34 35 35 35 35 35 34 34 34 33 33 32 32 31 31 31 30 30 30 29 29 29 28 28 29 29 30 30 31
30 30 31 32 33 32 32 32 32 32 32 33 32 32 32 31 31 30 30 30 29 28 28 27 26 26 26 26 26 26 26 26 26 26 26 27 28 28
27 28 28 28 29 29 29 30 30 30 30 30 30 29 29 28 27 26 26 25 25 24 23 22 23 23 23 22 22 22 23 23 23 23 24 25 25 24
24 24 25 26 26 27 27 27 27 27 27 27 27 27 26 25 24 23 21 21 20 19 19 19 19 19 19 20 19 20 20 21 21 21 21 21 22 22
22 22 23 23 23 24 24 24 24 24 24 24 24 23 22 21 20 19 18 17 17 16 16 16 16 16 16 17 17 18 18 18 19 19 20 20 20 21
20 20 20 21 21 21 21 21 21 21 21 20 20 19 19 17 16 16 15 14 13 13 14 14 14 13 14 14 15 16 17 17 17 18 19 19 19 19
18 19 19 20 20 19 19 19 19 19 18 17 16 16 15 14 13 12 11 11 11 11 12 12 11 11 11 12 13 14 15 16 17 17 18 18 18 18
17 17 18 18 17 17 17 17 17 16 15 14 13 12 11 10 9 8 8 8 8 8 9 9 8 8 9 10 11 12 14 15 16 16 17 17 17 17
15 15 15 15 15 15 15 14 13 13 12 11 10 9 8 7 7 6 6 5 5 6 7 6 6 6 8 9 11 12 13 14 15 16 16 16 17 18
13 13 13 13 13 13 12 11 10 10 9 8 7 7 6 5 5 4 4 4 4 5 4 4 5 6 7 9 11 12 13 14 15 16 16 16 17 18
12 12 12 12 12 11 10 9 9 8 7 6 6 5 4 4 3 3 2 3 4 3 3 4 5 6 7 9 11 12 13 14 15 15 16 16 17 18
10 11 11 10 10 9 9 8 7 7 5 5 4 4 3 3 2 2 2 3 3 2 3 4 5 6 8 9 11 12 13 14 14 15 16 17 18 19
9 10 9 8 8 8 7 7 6 5 4 3 3 2 2 2 1 1 1 1 2 2 2 3 5 6 8 9 11 12 13 13 14 15 16 17 18 19
7 7 7 7 7 7 6 5 4 4 3 3 2 2 1 1 1 1 0 1 2 2 3 4 5 6 8 9 11 12 12 13 14 15 16 17 18 19
6 6 6 6 6 5 4 4 3 3 2 1 1 1 1 1 1 1 1 1 2 3 4 5 6 7 8 10 11 12 12 13 14 15 16 17 18 19
6 6 6 5 5 4 4 3 2 1 0 1 1 1 2 2 1 1 1 2 2 3 4 5 7 7 9 10 11 12 13 14 15 16 17 18 19 19
6 5 5 5 5 4 4 3 2 1 1 1 1 1 2 2 1 1 1 2 2 3 5 6 7 8 9 10 11 12 13 14 16 17 17 18 19 20
7 6 6 6 5 5 4 4 3 2 2 2 2 2 1 1 1 0 1 2 3 4 5 6 7 9 10 10 11 12 13 14 15 16 17 19 20 20
Wind_Direction
270 271 271 272 273 276 277 277 279 280 281 282 283 284 285 286 287 288 288 289 290 290 290 291 291 292 292 291 291 291 290 289 288 287 286 285 284 283
269 271 272 274 276 279 280 279 279 280 281 282 284 285 286 287 288 288 289 290 290 290 291 292 292 292 292 292 292 292 292 291 290 289 288 288 287 287
273 275 277 278 278 281 281 280 281 281 281 282 284 285 286 287 288 289 290 291 291 292 292 292 292 294 295 295 295 295 294 293 291 290 290 291 291 290
276 277 279 280 280 281 281 282 282 282 282 283 285 286 287 288 289 289 290 291 292 293 293 293 295 296 296 296 297 297 297 297 295 294 293 293 292 293
276 279 281 281 282 282 283 284 284 284 284 285 286 287 288 289 290 290 291 292 293 294 294 295 296 297 298 299 299 299 301 300 300 300 299 298 297 297
279 281 281 281 282 282 284 285 286 286 286 287 288 289 288 289 291 292 292 293 293 294 295 295 296 297 299 300 301 303 303 303 303 304 303 302 302 303
281 281 281 283 284 286 286 287 287 288 289 289 290 290 290 289 290 292 292 292 293 295 296 297 297 299 301 303 305 307 307 308 308 308 309 309 309 309
282 284 285 285 286 289 288 287 287 289 290 290 291 291 290 288 289 290 292 292 294 296 298 300 303 305 306 307 310 313 314 314 314 314 315 316 316 317
286 288 287 288 290 290 291 290 289 290 290 290 291 291 290 288 289 291 291 291 294 297 300 305 307 308 310 312 315 318 320 320 320 322 323 324 324 325
287 289 290 291 291 291 293 293 292 291 291 292 290 290 290 287 289 291 292 293 296 299 302 307 309 311 314 318 320 323 326 326 326 327 329 330 330 331
289 291 293 293 293 293 294 296 296 295 295 293 291 291 291 291 290 289 290 294 297 300 304 307 308 311 315 320 323 326 329 331 333 334 334 335 336 337
290 292 293 294 295 296 298 298 298 298 298 297 295 292 291 291 290 291 290 290 293 299 304 306 308 312 318 324 327 330 334 337 339 340 341 342 343 344
290 292 295 298 300 301 302 301 300 300 300 300 298 296 293 288 287 286 286 288 294 301 307 309 311 316 324 331 335 338 342 345 346 347 348 350 351 352
296 298 301 304 306 306 305 303 302 302 302 300 296 291 287 286 285 285 290 296 305 311 315 317 323 330 336 340 342 343 345 347 348 351 352 354 356 356
302 305 307 309 311 310 308 306 303 301 300 295 289 286 281 280 281 282 289 303 316 321 327 329 333 338 343 345 346 347 348 349 350 352 355 356 357 357
303 305 309 312 313 313 312 310 306 300 295 287 284 280 271 269 267 267 280 306 317 321 324 333 340 345 348 349 349 350 351 352 353 354 356 359 1 0
304 307 309 311 314 315 313 310 308 304 296 286 280 276 269 260 249 250 280 312 326 335 346 350 352 353 353 352 352 352 354 355 356 358 360 1 2 1
308 309 310 312 312 313 312 309 305 299 292 284 279 274 255 235 228 233 315 353 4 5 5 1 0 359 356 355 354 355 356 358 358 359 360 0 0 0
321 320 318 318 316 314 312 310 304 295 278 263 253 239 219 197 183 171 49 28 24 22 15 7 1 359 358 357 357 358 359 359 359 360 0 1 1 1
336 336 335 336 334 328 323 318 315 306 278 253 232 204 183 161 144 133 104 49 25 18 11 7 3 1 0 1 360 359 359 360 0 1 1 1 1 1
354 353 352 352 352 351 348 344 342 337 288 209 186 177 174 165 147 122 60 27 20 18 10 5 3 4 4 3 1 1 0 0 1 1 360 359 359 359
14 11 10 9 9 11 11 12 18 36 63 96 139 152 160 159 148 102 28 18 17 15 9 4 3 3 2 1 360 0 1 0 359 357 357 356 356 357
29 26 25 25 27 27 29 36 48 65 72 86 104 117 133 149 140 41 18 15 13 6 3 0 359 358 358 359 359 359 359 358 357 355 354 353 353 354
Height
5776 5776 5776 5777 5776 5776 5775 5775 5775 5775 5775 5774 5773 5771 5770 5768 5767 5765 5762 5760 5757 5754 5751 5748 5745 5741 5738 5735 5731 5728 5725 5722 5719 5716 5714 5711 5708 5706
5768 5768 5768 5768 5767 5767 5766 5765 5764 5764 5764 5763 5762 5760 5759 5757 5755 5753 5751 5748 5745 5742 5739 5737 5733 5730 5726 5723 5720 5716 5713 5710 5707 5704 5701 5698 5696 5693
5759 5759 5759 5759 5758 5758 5757 5756 5754 5753 5753 5752 5751 5750 5748 5746 5744 5742 5740 5737 5734 5731 5728 5726 5722 5719 5716 5712 5709 5705 5702 5699 5696 5693 5690 5687 5684 5682
5751 5751 5750 5750 5749 5748 5747 5746 5744 5743 5743 5742 5741 5739 5737 5735 5733 5731 5729 5727 5725 5722 5718 5715 5713 5709 5706 5703 5700 5696 5693 5690 5687 5683 5680 5678 5675 5671
5742 5742 5741 5741 5740 5739 5738 5736 5735 5734 5733 5732 5731 5729 5728 5725 5723 5721 5719 5717 5715 5713 5710 5707 5704 5701 5697 5695 5691 5688 5685 5682 5679 5675 5672 5669 5665 5662
5734 5734 5733 5732 5731 5730 5729 5727 5726 5725 5724 5723 5721 5720 5718 5716 5715 5712 5710 5708 5706 5704 5702 5699 5696 5693 5690 5687 5684 5681 5678 5674 5671 5668 5665 5661 5657 5654
5726 5726 5725 5723 5722 5721 5720 5718 5717 5716 5715 5714 5713 5711 5709 5708 5706 5704 5702 5700 5698 5696 5694 5691 5689 5687 5684 5681 5678 5675 5672 5669 5665 5662 5658 5655 5651 5647
5719 5718 5717 5716 5714 5713 5712 5710 5709 5708 5707 5706 5704 5703 5701 5700 5699 5697 5695 5693 5692 5690 5688 5685 5683 5681 5678 5676 5673 5670 5667 5664 5660 5657 5653 5650 5646 5642
5712 5711 5710 5709 5707 5706 5704 5703 5701 5700 5699 5698 5697 5695 5694 5693 5692 5690 5689 5687 5686 5684 5682 5680 5678 5676 5674 5671 5668 5666 5663 5660 5656 5653 5649 5646 5642 5638
5706 5704 5703 5702 5700 5699 5698 5696 5694 5693 5692 5691 5690 5689 5688 5686 5686 5685 5684 5683 5681 5680 5678 5677 5675 5673 5670 5668 5665 5663 5660 5657 5653 5650 5646 5643 5639 5634
5699 5698 5697 5696 5695 5693 5692 5690 5689 5687 5686 5685 5684 5683 5682 5681 5680 5680 5679 5679 5678 5677 5675 5674 5672 5670 5668 5666 5664 5661 5658 5655 5651 5647 5644 5640 5636 5632
5694 5693 5692 5691 5690 5688 5687 5685 5684 5682 5681 5680 5679 5678 5677 5677 5677 5676 5676 5675 5675 5674 5672 5671 5669 5668 5666 5664 5662 5659 5656 5653 5649 5646 5642 5638 5634 5630
5690 5689 5687 5686 5685 5683 5682 5681 5679 5678 5677 5676 5675 5675 5674 5674 5674 5673 5673 5672 5672 5671 5670 5669 5667 5666 5664 5662 5660 5657 5655 5651 5648 5644 5641 5637 5633 5629
5685 5684 5683 5682 5680 5679 5678 5677 5675 5674 5673 5672 5672 5672 5671 5671 5671 5671 5671 5670 5670 5669 5668 5667 5666 5664 5663 5661 5659 5656 5653 5650 5647 5644 5640 5636 5632 5629
5682 5681 5679 5678 5677 5676 5675 5673 5672 5671 5671 5670 5670 5670 5670 5669 5669 5669 5669 5669 5668 5668 5667 5666 5665 5663 5662 5660 5658 5655 5653 5649 5646 5643 5639 5636 5632 5628
5679 5678 5677 5675 5674 5673 5672 5671 5670 5669 5669 5668 5668 5668 5668 5668 5668 5668 5668 5668 5668 5667 5666 5665 5664 5663 5661 5659 5657 5654 5651 5648 5645 5642 5639 5635 5631 5627
5676 5675 5674 5673 5672 5671 5670 5669 5668 5668 5667 5667 5667 5667 5667 5667 5667 5668 5668 5667 5667 5666 5666 5665 5664 5662 5661 5659 5656 5654 5651 5648 5645 5641 5638 5634 5631 5627
5674 5673 5672 5671 5670 5669 5668 5668 5667 5667 5666 5666 5666 5666 5667 5667 5667 5667 5667 5667 5666 5666 5665 5664 5663 5662 5661 5658 5656 5653 5650 5647 5644 5641 5638 5634 5631 5627
5672 5671 5670 5669 5668 5668 5667 5666 5666 5666 5665 5665 5665 5666 5666 5666 5667 5667 5667 5667 5666 5665 5665 5664 5663 5661 5660 5658 5656 5653 5650 5647 5644 5641 5638 5634 5631 5627
5671 5670 5669 5668 5667 5667 5666 5666 5665 5665 5665 5665 5665 5666 5666 5666 5667 5667 5667 5666 5666 5665 5665 5664 5662 5661 5659 5657 5655 5653 5650 5647 5644 5641 5638 5634 5630 5627
5671 5670 5669 5668 5667 5666 5666 5665 5665 5665 5665 5665 5665 5666 5666 5667 5667 5667 5667 5667 5666 5665 5665 5664 5662 5661 5659 5657 5655 5653 5650 5646 5643 5640 5637 5634 5630 5626
5671 5670 5669 5668 5668 5667 5666 5666 5665 5665 5665 5665 5666 5666 5666 5667 5667 5667 5667 5667 5666 5665 5665 5663 5662 5661 5659 5657 5655 5652 5649 5646 5643 5640 5636 5633 5630 5625
5672 5671 5670 5669 5668 5668 5667 5667 5666 5666 5666 5666 5666 5667 5667 5667 5667 5667 5667 5667 5666 5666 5665 5663 5662 5660 5658 5656 5654 5652 5649 5646 5643 5640 5636 5632 5629 5625